Regional Weather Roundup
Issued by NWS Wakefield, VA

Home | Current Version | Previous Version | Text Only | Print | Product List | Glossary On
Versions: 1 2 3 4 5 6 7 8 9 10 11 12 13 14 15 16 17 18 19 20 21 22 23 24 25 26 27 28 29 30 31 32 33 34 35 36 37 38 39 40 41 42 43 44 45 46 47 48 49 50
000
ASUS41 KAKQ 271510
RWRAKQ

REGIONAL WEATHER ROUNDUP
NATIONAL WEATHER SERVICE WAKEFIELD VA
1100 AM EDT WED AUG 27 2014

Note: "fair" indicates few or no clouds below 12,000 feet with no
significant weather and/or obstructions to visibility. * = Denotes
station may not report precipitation (e.g., rain,snow,etc.),
thunder or fog.

VAZ042-051-052>054-056-271600-
NORTHERN VIRGINIA

CITY           SKY/WX    TMP DP  RH WIND       PRES   REMARKS
WASH NATIONAL  SUNNY     80  65  59 S5        30.08F
DULLES         SUNNY     79  62  56 VRB3      30.09S
FORT BELVOIR   SUNNY     79  64  60 VRB1      30.08F
QUANTICO       SUNNY     76  67  73 S3        30.09S
FREDERICKSBRG* SUNNY     81  63  55 NE3       30.07F
STAFFORD*      SUNNY     78  66  66 CALM      30.12F
WARRENTON      SUNNY     80  70  71 CALM      30.10S
CULPEPER*      SUNNY    N/A N/A N/A CALM      30.10S
MANASSAS*      NOT AVBL
LEESBURG*      SUNNY     81  64  57 W3        30.10S
WINCHESTER     SUNNY     77  63  61 S3        30.10S
$$

VAZ048-049-060>072-079>083-271600-
CENTRAL AND SOUTH CENTRAL VIRGINIA...AND NORTH CENTRAL NORTH CAROLINA

CITY           SKY/WX    TMP DP  RH WIND       PRES   REMARKS
RICHMOND       SUNNY     82  64  54 N7        30.07F
CHESTERFIELD*  SUNNY    N/A N/A N/A N7        30.09F
HANOVER        SUNNY     80  64  58 N6        30.09F
TAPPAHANNOCK*  SUNNY     79  60  52 NW3       30.08F
CHARLOTTSVILLE SUNNY     76  63  64 SW3       30.11S
ORANGE*        SUNNY     79  63  57 SW5       30.11S
LOUISA*        SUNNY     79  66  65 CALM      30.09S
FARMVILLE*     SUNNY     79  63  57 NE3       30.08
SOUTH HILL*    SUNNY     79  64  61 N5        30.13S
ROANOKE RAPIDS SUNNY     72  63  73 NE7       30.07F
RALEIGH        MOSUNNY   77  62  59 VRB6      30.08S
$$

VAZ088>098-271600-
SOUTHEAST VIRGINIA

CITY           SKY/WX    TMP DP  RH WIND       PRES   REMARKS
NORFOLK        PTSUNNY   77  68  73 NE12      30.06R
VIRGINIA BEACH PTSUNNY   77  68  73 NE15      30.05R
NORFOLK NAVAL  MOSUNNY   76  68  76 NE10      30.07S
WEST POINT*    SUNNY     81  60  48 N5        30.08S
NEWPORT NEWS   MOSUNNY   83  67  58 E9        30.06S
LANGLEY AFB    MOSUNNY   78  70  77 NE10      30.05F
FORT EUSTIS    SUNNY     79  62  55 E6        30.05S
WILLIAMSBURG*  SUNNY     82  68  61 CALM      30.07F
FRANKLIN*      MOSUNNY   77  66  69 NE6       30.06F
WAKEFIELD      SUNNY     77  65  66 VRB5      30.07S
$$

VAZ020-022-025-037-045-271600-
WESTERN AND SOUTHWEST VIRGINIA

CITY           SKY/WX    TMP DP  RH WIND       PRES   REMARKS
STAUNTON*      SUNNY     74  60  61 CALM      30.16S
HOT SPRINGS VA SUNNY     67  56  69 CALM      30.27R
LYNCHBURG      SUNNY     76  62  62 NE3       30.14S
DANVILLE       SUNNY     79  63  57 N5        30.11S
MARTINSVILLE   SUNNY     79  62  56 NE3       30.16S
ROANOKE        MOSUNNY   72  59  63 CALM      30.16S
BLACKSBURG     SUNNY     64  64 100 NW5       30.21F
DUBLIN*        SUNNY     69  62  77 CALM      30.20F
MARION*        SUNNY    N/A N/A N/A CALM      30.23S
HILLSVILLE*    SUNNY     64  60  85 CALM      30.22S
RICHLANDS*     SUNNY     72  58  62 CALM      30.22R
WISE*          SUNNY     73  59  60 NW5       30.23S
ABINGDON*      SUNNY     74  58  57 CALM      30.20R
$$

MDZ021>025-VAZ099-100-271600-
SOUTHERN MARYLAND AND THE DELMARVA PENINSULA

CITY           SKY/WX    TMP DP  RH WIND       PRES   REMARKS
PATUXENT RIVER SUNNY     79  65  62 NW6       30.07F
BAY BRIDGE APT   N/A     79  63  57 W3        30.07S
LEONARDTOWN    NOT AVBL
DOVER          SUNNY     80  65  60 NW5       30.05F
GEORGETOWN     SUNNY     79  59  50 E8        30.07F
EASTON         SUNNY     82  68  61 CALM      30.10F
CAMBRIDGE      SUNNY     79  66  65 N5        30.07S
SALISBURY      SUNNY     80  60  50 VRB5      30.06F
OCEAN CITY     SUNNY     79  67  66 VRB5      30.07R
WALLOPS ISLAND SUNNY     79  68  69 VRB6      30.07S
ACCOMACK*        N/A    N/A N/A N/A MISG        N/A
$$

NCZ012>017-030>032-271600-
EASTERN NORTH CAROLINA

CITY           SKY/WX    TMP DP  RH WIND       PRES   REMARKS
ELIZABETH CITY MOSUNNY   79  69  71 NE14      30.04R
AHOSKIE*       SUNNY     74  66  76 N9        30.07S
EDENTON*       MOSUNNY   80  70  72 NE7       30.04S
CURRITUCK*     CLOUDY    78  68  71 N12G18    30.05R
KILL DEVIL HLS SUNNY     79  73  82 N14       30.01S
MANTEO         CLOUDY    78  72  81 N15G24    30.02R
CAPE HATTERAS  MOSUNNY   80  74  81 N10G20    29.98R
GOLDSBORO      SUNNY     75  70  83 N8        30.04S
WASHINGTON     MOSUNNY   76  69  77 N12       30.04S
GREENVILLE     PTSUNNY   77  70  78 N8        30.06F
NEW BERN       PTSUNNY   81  70  69 N10       30.03S
WILMINGTON     SUNNY     79  68  69 N12       30.01S
$$

VAZ048-271600-
ELSEWHERE

CITY           SKY/WX    TMP DP  RH WIND       PRES   REMARKS
HARRISBURG PA  PTSUNNY   78  65  63 CALM      30.05F
BALTIMORE      SUNNY     81  64  56 VRB3      30.07S
ANNAPOLIS      SUNNY     77  68  73 SE8       30.07S
ANDREWS AFB    SUNNY     81  64  57 CALM      30.08S
WILMINGTON DE  SUNNY     81  65  58 CALM      30.07F
PHILADELPHIA   MOSUNNY   80  65  59 SW7       30.05F
WILDWOOD NJ*   SUNNY     75  57  53 W3        30.07F
ATLANTIC CITY  SUNNY     80  58  46 VRB3      30.06F
HENDERSON NC   SUNNY     75  62  64 N5        30.09S
GREENSBORO     MOSUNNY   78  61  55 N7        30.12S
ROCKY MOUNT    SUNNY     75  63  66 N9        30.07S
FAYETTEVILLE   SUNNY     78  61  55 N10       30.05S
CHARLOTTE      MOSUNNY   78  62  57 N8        30.13S
$$

VAZ100-271600-
MARINE

STATION/POSITION TIME  TEMP    WIND        PRES    WAVE   SWELL
                       AIR SEA DIR/SP/G            HT/PER HT/PER
                 (UTC) (F)     (DEG/KT/KT) (MB)    (FT/S) (FT/S)
44066 TX TWR #4  1500   71 73  290/  4/  6 1017.6F   4/11   3/11
CAPE MAY NJ      1500   73 79  290/  3/  5 1017.7F
LEWES DE         1500   73 76  360/  4/  4 1017.7F
15NM E FENWICK I 1500   72 74              1017.9R   3/10
OCEAN-CITY-INLET 1500   73 75   10/  5/  6 1017.8S
WACHAPREAGUE VA  1500   74 76   70/  9/ 11 1017.9F
THOMAS POINT MD  1500   74 78  200/  2/  3 1019.2F
GOOSES REEF MD   1500   74     350/  2/  4 1018.9S
COVE POINT MD    1500   75      10/  4/  5 1018.2F
SOLOMONS ISLAND  1500      79                N/A
BISHOPS HEAD MD  1500   77 76   20/  4/  8 1017.7F
PINEY POINT MD   1500          320/  7/  8   N/A
POTOMAC MD       1500   75     330/  6/  8 1017.6S
CAMBRIDGE MD     1500   74 78  320/  5/  6 1018.0S
LEWISETTA VA     1500   75 78  360/  6/  8 1017.8F
RAPPAHANNOCK LGT 1500           10/ 10/ 12 1018.6F
STINGRAY PT      1500   74      20/  8/ 12   N/A
YORK RVR RNG VA  1500   74      60/ 11/ 13 1017.5F
YORKTOWN VA      1500   74 79   80/  6/  7 1017.7F
JAMESTOWN VA     1500   71     340/  4/  8   N/A
DOMINION TERM VA 1500   77      30/  5/  8 1018.0F
KIPTOPEKE VA     1500      80   60/  8/ 11   N/A
CHES BAY BRIDGE  1500   74 77   20/ 10/ 12 1017.3S
CAPE HENRY VA    1500   74      30/ 13/ 15 1016.5F
CHESAPEAKE LGHT  1400   73      30/ 15/ 16 1017.9R
WILLOUBY STN VA  1500   74      50/  9/ 11 1016.7F
S CRANEY ISL VA  1500          360/ 12/ 14 1017.5F
CAPE HENRY BUOY  1400      76                N/A     5/ 8   2/12
1ST LANDING BUOY 1500   75      40/ 12/ 14 1017.4F
CAPE CHARLES BUO 1500      76                N/A     5/13   5/13
OFFSHORE WE BUOY 1500      75                N/A     6/13   5/13
64NM E OF VA BCH 1500   77 78   40/ 17/ 19 1015.7S   7/13   5/13
DUCK PIER NC     1500   74 76   10/ 17/ 20 1015.7F
44056 DUCK FRF   1500                        N/A     6/13   3/13
OREGON INLET NC  1500   77 77   10/ 17/ 23 1015.8S
HATTERAS NC      1500   78 78   20/ 17/ 24 1015.5R
DIAMOND SHLS NC  1500   78     360/ 21/ 27 1013.4R   9/ 8   7/12
CAPE LOOKOUT NC  1400   76     360/ 19/ 22 1014.9R
$$


USA.gov is the U.S. government's official web portal to all federal, state and local government web resources and services.